,,Stat6,,Stat2,,Stat8,,Stat9,,Stat10,,Wind1,,Wind1,
time,status,PA1M_AVG,status,PR1M_SUM,status,RH1M_AVG,status,SR1M_AVG,status,TA1M_AVG,status,W1dAve1m,status,W1sAve1m,
2007-12-18, 00:00:00,VALID,917.784,VALID,0.2,VALID,100,VALID,-0.0169808,VALID,19.5101,VALID,152,VALID,2.04469,
2007-12-18, 00:01:00,VALID,917.785,VALID,0,VALID,100,VALID,-0.0169808,VALID,19.5134,VALID,157,VALID,1.53194,
2007-12-18, 00:02:00,VALID,917.804,VALID,0,VALID,100,VALID,0,VALID,19.5099,VALID,139,VALID,1.42442,
2007-12-18, 00:03:00,VALID,917.78,VALID,0,VALID,100,VALID,0,VALID,19.5039,VALID,159,VALID,1.57741,
2007-12-18, 00:04:00,VALID,917.779,VALID,0,VALID,100,VALID,0,VALID,19.4872,VALID,149,VALID,1.4945,
2007-12-18, 00:05:00,VALID,917.796,VALID,0,VALID,100,VALID,-0.0169808,VALID,19.4844,VALID,146,VALID,2.02689,
2007-12-18, 00:06:00,VALID,917.82,VALID,0,VALID,100,VALID,0,VALID,19.4947,VALID,138,VALID,3.00037,
2007-12-18, 00:07:01,VALID,917.835,VALID,0,VALID,100,VALID,-0.0509425,VALID,19.5007,VALID,136,VALID,2.80764,
2007-12-18, 00:08:01,VALID,917.811,VALID,0,VALID,100,VALID,-0.0169808,VALID,19.5456,VALID,142,VALID,2.64789,
2007-12-18, 00:09:00,VALID,917.822,VALID,0,VALID,100,VALID,-0.0509425,VALID,19.6012,VALID,141,VALID,1.91711,
2007-12-18, 00:10:00,VALID,917.832,VALID,0,VALID,100,VALID,0,VALID,19.608,VALID,150,VALID,1.89371,
2007-12-18, 00:11:00,VALID,917.837,VALID,0,VALID,100,VALID,0,VALID,19.6174,VALID,145,VALID,2.23892,
2007-12-18, 00:12:00,VALID,917.831,VALID,0,VALID,100,VALID,-0.0169808,VALID,19.6112,VALID,154,VALID,2.53627,
2007-12-18, 00:13:00,VALID,917.844,VALID,0,VALID,100,VALID,-0.0169808,VALID,19.6047,VALID,144,VALID,1.76083,
2007-12-18, 00:14:00,VALID,917.82,VALID,0.2,VALID,100,VALID,-0.0169808,VALID,19.588,VALID,147,VALID,1.39615,
2007-12-18, 00:15:00,VALID,917.809,VALID,0,VALID,100,VALID,-0.0339617,VALID,19.5853,VALID,142,VALID,1.74572,
2007-12-18, 00:16:00,VALID,917.792,VALID,0,VALID,100,VALID,-0.0169808,VALID,19.585,VALID,139,VALID,1.61192,
2007-12-18, 00:17:00,VALID,917.795,VALID,0,VALID,100,VALID,0,VALID,19.5813,VALID,150,VALID,1.60423,
2007-12-18, 00:18:01,VALID,917.768,VALID,0,VALID,100,VALID,0.0169808,VALID,19.5778,VALID,142,VALID,2.18532,
2007-12-18, 00:19:00,VALID,917.762,VALID,0,VALID,100,VALID,-0.0339617,VALID,19.5945,VALID,141,VALID,2.04688,
2007-12-18, 00:20:00,VALID,917.732,VALID,0,VALID,100,VALID,-0.0679233,VALID,19.588,VALID,150,VALID,2.20739,
2007-12-18, 00:21:01,VALID,917.713,VALID,0,VALID,100,VALID,-0.0339617,VALID,19.614,VALID,159,VALID,2.12649,
2007-12-18, 00:22:00,VALID,917.689,VALID,0,VALID,100,VALID,-0.0339617,VALID,19.6307,VALID,155,VALID,2.39103,
2007-12-18, 00:23:00,VALID,917.687,VALID,0,VALID,100,VALID,0,VALID,19.6302,VALID,157,VALID,2.67416,
2007-12-18, 00:24:01,VALID,917.701,VALID,0,VALID,100,VALID,0,VALID,19.6556,VALID,156,VALID,2.06813,
2007-12-18, 00:25:00,VALID,917.706,VALID,0,VALID,100,VALID,-0.0169808,VALID,19.6721,VALID,118,VALID,1.83398,
2007-12-18, 00:26:01,VALID,917.681,VALID,0,VALID,99.9725,VALID,0,VALID,19.6823,VALID,130,VALID,2.92535,
2007-12-18, 00:27:00,VALID,917.679,VALID,0.2,VALID,99.8858,VALID,-0.0169808,VALID,19.714,VALID,136,VALID,1.59566,
2007-12-18, 00:28:01,VALID,917.646,VALID,0,VALID,99.8095,VALID,0,VALID,19.721,VALID,141,VALID,1.96378,
2007-12-18, 00:29:01,VALID,917.659,VALID,0,VALID,99.8744,VALID,-0.0169808,VALID,19.7173,VALID,142,VALID,2.07431,
2007-12-18, 00:30:00,VALID,917.674,VALID,0,VALID,99.9926,VALID,-0.0169808,VALID,19.7011,VALID,141,VALID,1.99237,
2007-12-18, 00:31:01,VALID,917.646,VALID,0,VALID,100,VALID,-0.0169808,VALID,19.6883,VALID,157,VALID,2.03184,
2007-12-18, 00:32:00,VALID,917.675,VALID,0,VALID,100,VALID,-0.0339617,VALID,19.6751,VALID,141,VALID,2.17671,
2007-12-18, 00:33:01,VALID,917.666,VALID,0,VALID,100,VALID,-0.0169808,VALID,19.6749,VALID,141,VALID,2.18672,
2007-12-18, 00:34:01,VALID,917.673,VALID,0,VALID,100,VALID,0.0169808,VALID,19.6848,VALID,134,VALID,1.5794,
2007-12-18, 00:35:00,VALID,917.682,VALID,0,VALID,100,VALID,-0.0339617,VALID,19.6848,VALID,140,VALID,2.00488,
2007-12-18, 00:36:01,VALID,917.688,VALID,0.2,VALID,100,VALID,0,VALID,19.6783,VALID,138,VALID,2.16953,
2007-12-18, 00:37:00,VALID,917.685,VALID,0,VALID,100,VALID,0.0169808,VALID,19.6848,VALID,130,VALID,1.8176,
2007-12-18, 00:38:00,VALID,917.665,VALID,0,VALID,100,VALID,0,VALID,19.6786,VALID,124,VALID,2.45455,
2007-12-18, 00:39:00,VALID,917.661,VALID,0,VALID,100,VALID,-0.0169808,VALID,19.6881,VALID,139,VALID,1.78735,
2007-12-18, 00:40:00,VALID,917.658,VALID,0,VALID,100,VALID,-0.0169808,VALID,19.6848,VALID,133,VALID,1.98528,
2007-12-18, 00:41:00,VALID,917.645,VALID,0,VALID,100,VALID,-0.0169808,VALID,19.6753,VALID,134,VALID,2.09542,
2007-12-18, 00:42:00,VALID,917.618,VALID,0,VALID,100,VALID,-0.0509425,VALID,19.6724,VALID,130,VALID,1.60938,
2007-12-18, 00:43:01,VALID,917.61,VALID,0.2,VALID,100,VALID,0,VALID,19.6621,VALID,141,VALID,2.25286,
2007-12-18, 00:44:00,VALID,917.62,VALID,0,VALID,100,VALID,0,VALID,19.6948,VALID,142,VALID,2.10023,
2007-12-18, 00:45:00,VALID,917.617,VALID,0,VALID,100,VALID,0,VALID,19.7115,VALID,144,VALID,2.66648,
2007-12-18, 00:46:01,VALID,917.615,VALID,0,VALID,100,VALID,0,VALID,19.714,VALID,157,VALID,2.04433,
2007-12-18, 00:47:01,VALID,917.614,VALID,0,VALID,100,VALID,0,VALID,19.721,VALID,154,VALID,2.38765,
2007-12-18, 00:48:00,VALID,917.61,VALID,0,VALID,100,VALID,0,VALID,19.6978,VALID,152,VALID,2.06399,
2007-12-18, 00:49:00,VALID,917.587,VALID,0,VALID,100,VALID,0,VALID,19.7013,VALID,154,VALID,2.34863,
2007-12-18, 00:50:00,VALID,917.573,VALID,0.2,VALID,100,VALID,-0.0169808,VALID,19.7115,VALID,137,VALID,1.95522,
2007-12-18, 00:51:01,VALID,917.576,VALID,0,VALID,100,VALID,0,VALID,19.7273,VALID,137,VALID,2.49556,
2007-12-18, 00:52:01,VALID,917.584,VALID,0,VALID,100,VALID,0,VALID,19.7402,VALID,117,VALID,1.70863,
2007-12-18, 00:53:01,VALID,917.613,VALID,0,VALID,100,VALID,-0.0339617,VALID,19.727,VALID,131,VALID,2.06176,
2007-12-18, 00:54:00,VALID,917.574,VALID,0,VALID,100,VALID,-0.0169808,VALID,19.718,VALID,118,VALID,1.96493,
2007-12-18, 00:55:01,VALID,917.56,VALID,0,VALID,100,VALID,-0.0339617,VALID,19.721,VALID,130,VALID,2.1955,
2007-12-18, 00:56:01,VALID,917.56,VALID,0.2,VALID,99.9914,VALID,-0.0169808,VALID,19.724,VALID,149,VALID,2.26277,
2007-12-18, 00:57:01,VALID,917.562,VALID,0,VALID,99.9631,VALID,-0.0169808,VALID,19.7342,VALID,134,VALID,1.83559,
2007-12-18, 00:58:01,VALID,917.556,VALID,0,VALID,99.988,VALID,0,VALID,19.7208,VALID,134,VALID,2.06505,
2007-12-18, 00:59:01,VALID,917.561,VALID,0,VALID,99.988,VALID,-0.0169808,VALID,19.7043,VALID,140,VALID,2.21076,
2007-12-18, 01:00:01,VALID,917.571,VALID,0,VALID,99.9964,VALID,-0.0339617,VALID,19.7043,VALID,140,VALID,1.55508,
2007-12-18, 01:01:01,VALID,917.568,VALID,0.2,VALID,99.9418,VALID,0,VALID,19.6978,VALID,139,VALID,2.34266,
2007-12-18, 01:02:01,VALID,917.564,VALID,0,VALID,99.8082,VALID,0,VALID,19.6848,VALID,139,VALID,2.36795,
2007-12-18, 01:03:01,VALID,917.568,VALID,0,VALID,99.615,VALID,0,VALID,19.7175,VALID,140,VALID,2.15703,
2007-12-18, 01:04:00,VALID,917.557,VALID,0,VALID,99.4446,VALID,0,VALID,19.7235,VALID,133,VALID,2.35138,
2007-12-18, 01:05:00,VALID,917.549,VALID,0,VALID,99.339,VALID,0.0169808,VALID,19.727,VALID,153,VALID,1.62957,
2007-12-18, 01:06:00,VALID,917.538,VALID,0,VALID,99.2093,VALID,0,VALID,19.7273,VALID,139,VALID,2.70815,
2007-12-18, 01:07:00,VALID,917.53,VALID,0,VALID,99.0682,VALID,-0.0169808,VALID,19.7567,VALID,143,VALID,2.22856,
2007-12-18, 01:08:00,VALID,917.518,VALID,0.2,VALID,98.9753,VALID,-0.0339617,VALID,19.7602,VALID,140,VALID,2.35975,
2007-12-18, 01:09:00,VALID,917.528,VALID,0,VALID,98.9245,VALID,-0.0339617,VALID,19.7562,VALID,152,VALID,2.37928,
2007-12-18, 01:10:00,VALID,917.507,VALID,0,VALID,98.941,VALID,0,VALID,19.757,VALID,149,VALID,1.90566,
2007-12-18, 01:11:00,VALID,917.509,VALID,0,VALID,98.9397,VALID,0.0169808,VALID,19.7372,VALID,149,VALID,2.28316,
2007-12-18, 01:12:00,VALID,917.524,VALID,0,VALID,98.9461,VALID,-0.0849042,VALID,19.7315,VALID,148,VALID,2.52687,
2007-12-18, 01:13:00,VALID,917.515,VALID,0,VALID,98.9296,VALID,-0.118866,VALID,19.732,VALID,158,VALID,2.29315,
2007-12-18, 01:14:00,VALID,917.508,VALID,0,VALID,98.9728,VALID,-0.118866,VALID,19.7225,VALID,129,VALID,2.11775,
2007-12-18, 01:15:00,VALID,917.507,VALID,0,VALID,98.9359,VALID,-0.118866,VALID,19.7198,VALID,140,VALID,2.41479,
2007-12-18, 01:16:00,VALID,917.507,VALID,0,VALID,98.8571,VALID,-0.101885,VALID,19.7125,VALID,146,VALID,2.53261,
2007-12-18, 01:17:00,VALID,917.487,VALID,0,VALID,98.8139,VALID,-0.101885,VALID,19.7058,VALID,150,VALID,2.258,
2007-12-18, 01:18:00,VALID,917.496,VALID,0.2,VALID,98.7986,VALID,-0.101885,VALID,19.7153,VALID,123,VALID,1.17099,
2007-12-18, 01:19:00,VALID,917.478,VALID,0,VALID,98.6981,VALID,-0.118866,VALID,19.726,VALID,135,VALID,2.12537,
2007-12-18, 01:20:00,VALID,917.491,VALID,0,VALID,98.7452,VALID,-0.101885,VALID,19.7352,VALID,135,VALID,1.48418,
2007-12-18, 01:21:00,VALID,917.466,VALID,0,VALID,98.8838,VALID,-0.118866,VALID,19.706,VALID,138,VALID,1.73865,
2007-12-18, 01:22:00,VALID,917.436,VALID,0,VALID,99.0911,VALID,-0.118866,VALID,19.6803,VALID,144,VALID,1.50515,
2007-12-18, 01:23:00,VALID,917.419,VALID,0,VALID,99.3021,VALID,-0.118866,VALID,19.6579,VALID,132,VALID,1.58929,
2007-12-18, 01:24:00,VALID,917.386,VALID,0,VALID,99.4102,VALID,-0.118866,VALID,19.6149,VALID,159,VALID,1.97061,
2007-12-18, 01:25:00,VALID,917.354,VALID,0,VALID,99.3835,VALID,-0.135847,VALID,19.6122,VALID,133,VALID,1.98001,
2007-12-18, 01:26:00,VALID,917.333,VALID,0.2,VALID,99.3505,VALID,-0.101885,VALID,19.6187,VALID,134,VALID,2.1149,
2007-12-18, 01:27:00,VALID,917.319,VALID,0,VALID,99.4255,VALID,-0.0169808,VALID,19.5975,VALID,142,VALID,1.30301,
2007-12-18, 01:28:00,VALID,917.293,VALID,0,VALID,99.5221,VALID,-0.0169808,VALID,19.5813,VALID,147,VALID,1.79492,
2007-12-18, 01:29:00,VALID,917.245,VALID,0,VALID,99.6404,VALID,-0.0169808,VALID,19.5648,VALID,151,VALID,2.00462,
2007-12-18, 01:30:00,VALID,917.245,VALID,0,VALID,99.6963,VALID,0.0169808,VALID,19.5453,VALID,166,VALID,2.0694,
2007-12-18, 01:31:00,VALID,917.239,VALID,0,VALID,99.6353,VALID,0.0169808,VALID,19.5388,VALID,147,VALID,2.53944,
2007-12-18, 01:32:00,VALID,917.232,VALID,0,VALID,99.6251,VALID,-0.0169808,VALID,19.5386,VALID,148,VALID,1.89063,
2007-12-18, 01:33:00,VALID,917.226,VALID,0.2,VALID,99.6124,VALID,-0.0169808,VALID,19.5553,VALID,152,VALID,2.11776,
2007-12-18, 01:34:00,VALID,917.184,VALID,0,VALID,99.5107,VALID,0,VALID,19.5551,VALID,158,VALID,2.62003,
2007-12-18, 01:35:00,VALID,917.197,VALID,0,VALID,99.3683,VALID,-0.0169808,VALID,19.5783,VALID,157,VALID,2.28792,
2007-12-18, 01:36:00,VALID,917.202,VALID,0,VALID,99.306,VALID,-0.0339617,VALID,19.608,VALID,154,VALID,2.25908,
2007-12-18, 01:37:00,VALID,917.187,VALID,0,VALID,99.3009,VALID,0,VALID,19.6202,VALID,157,VALID,1.71992,
2007-12-18, 01:38:00,VALID,917.175,VALID,0,VALID,99.4064,VALID,-0.0339617,VALID,19.6272,VALID,165,VALID,1.56138,
2007-12-18, 01:39:00,VALID,917.165,VALID,0,VALID,99.4318,VALID,0,VALID,19.6077,VALID,173,VALID,1.65039,
2007-12-18, 01:40:00,VALID,917.161,VALID,0,VALID,99.5399,VALID,-0.0509425,VALID,19.6042,VALID,175,VALID,1.57589,
2007-12-18, 01:41:00,VALID,917.151,VALID,0,VALID,99.6417,VALID,-0.0169808,VALID,19.5778,VALID,164,VALID,1.51381,
2007-12-18, 01:42:00,VALID,917.142,VALID,0.2,VALID,99.7472,VALID,-0.0339617,VALID,19.5748,VALID,161,VALID,0.860742,
2007-12-18, 01:43:00,VALID,917.143,VALID,0,VALID,99.8273,VALID,-0.0169808,VALID,19.572,VALID,183,VALID,0.811503,
2007-12-18, 01:44:00,VALID,917.136,VALID,0,VALID,99.8947,VALID,-0.0339617,VALID,19.5531,VALID,170,VALID,1.45313,
2007-12-18, 01:45:00,VALID,917.109,VALID,0,VALID,99.9265,VALID,0,VALID,19.5326,VALID,183,VALID,1.36797,
2007-12-18, 01:46:00,VALID,917.096,VALID,0,VALID,99.9468,VALID,-0.0169808,VALID,19.5428,VALID,156,VALID,1.29918,
2007-12-18, 01:47:00,VALID,917.083,VALID,0,VALID,99.9794,VALID,-0.0169808,VALID,19.5426,VALID,155,VALID,1.53427,
2007-12-18, 01:48:00,VALID,917.09,VALID,0,VALID,100,VALID,-0.0339617,VALID,19.5493,VALID,162,VALID,1.46399,
2007-12-18, 01:49:00,VALID,917.056,VALID,0,VALID,100,VALID,-0.0339617,VALID,19.5324,VALID,159,VALID,1.42116,
2007-12-18, 01:50:00,VALID,917.053,VALID,0,VALID,100,VALID,-0.0339617,VALID,19.5358,VALID,176,VALID,1.89499,
2007-12-18, 01:51:00,VALID,917.042,VALID,0.2,VALID,100,VALID,-0.0339617,VALID,19.5294,VALID,164,VALID,2.01451,
2007-12-18, 01:52:00,VALID,917.059,VALID,0,VALID,100,VALID,-0.0679233,VALID,19.5368,VALID,157,VALID,1.18559,
2007-12-18, 01:53:00,VALID,917.053,VALID,0,VALID,100,VALID,0,VALID,19.5166,VALID,146,VALID,0.970117,
2007-12-18, 01:54:00,VALID,917.028,VALID,0,VALID,100,VALID,-0.0339617,VALID,19.5104,VALID,160,VALID,1.82048,
2007-12-18, 01:55:00,VALID,917.003,VALID,0,VALID,100,VALID,-0.0679233,VALID,19.4837,VALID,134,VALID,0.878516,
2007-12-18, 01:56:00,VALID,916.996,VALID,0,VALID,100,VALID,-0.0169808,VALID,19.4842,VALID,129,VALID,1.43236,
2007-12-18, 01:57:00,VALID,916.997,VALID,0,VALID,100,VALID,-0.0339617,VALID,19.471,VALID,149,VALID,1.51772,
2007-12-18, 01:58:00,VALID,916.991,VALID,0.2,VALID,100,VALID,-0.0509425,VALID,19.4545,VALID,159,VALID,2.20668,
2007-12-18, 01:59:00,VALID,916.981,VALID,0,VALID,100,VALID,-0.0509425,VALID,19.4782,VALID,153,VALID,2.24964,
2007-12-18, 02:00:00,VALID,916.968,VALID,0,VALID,100,VALID,-0.0849042,VALID,19.4814,VALID,159,VALID,1.38851,
2007-12-18, 02:01:00,VALID,916.967,VALID,0,VALID,100,VALID,-0.101885,VALID,19.4882,VALID,144,VALID,1.129,
2007-12-18, 02:02:00,VALID,916.957,VALID,0,VALID,100,VALID,0,VALID,19.4742,VALID,138,VALID,1.3766,
2007-12-18, 02:03:00,VALID,916.948,VALID,0,VALID,100,VALID,-0.0339617,VALID,19.461,VALID,139,VALID,1.48855,
2007-12-18, 02:04:00,VALID,916.931,VALID,0,VALID,100,VALID,-0.0509425,VALID,19.4582,VALID,149,VALID,1.97871,
2007-12-18, 02:05:00,VALID,916.919,VALID,0,VALID,100,VALID,-0.0509425,VALID,19.4715,VALID,140,VALID,1.84335,
2007-12-18, 02:06:00,VALID,916.909,VALID,0,VALID,100,VALID,-0.0339617,VALID,19.4779,VALID,143,VALID,1.55868,
2007-12-18, 02:07:00,VALID,916.892,VALID,0,VALID,100,VALID,-0.0339617,VALID,19.4645,VALID,123,VALID,1.34165,
2007-12-18, 02:08:00,VALID,916.872,VALID,0.2,VALID,100,VALID,-0.0339617,VALID,19.4483,VALID,126,VALID,1.42489,
2007-12-18, 02:09:00,VALID,916.862,VALID,0,VALID,100,VALID,-0.0679233,VALID,19.4385,VALID,152,VALID,1.43324,
2007-12-18, 02:10:00,VALID,916.837,VALID,0,VALID,100,VALID,-0.0509425,VALID,19.4288,VALID,150,VALID,1.77511,
2007-12-18, 02:11:00,VALID,916.822,VALID,0,VALID,100,VALID,-0.0169808,VALID,19.4323,VALID,144,VALID,2.05183,
2007-12-18, 02:12:00,VALID,916.817,VALID,0,VALID,100,VALID,-0.0679233,VALID,19.4258,VALID,146,VALID,2.06632,
2007-12-18, 02:13:00,VALID,916.788,VALID,0,VALID,100,VALID,-0.0169808,VALID,19.435,VALID,144,VALID,1.29821,
2007-12-18, 02:14:00,VALID,916.751,VALID,0,VALID,100,VALID,-0.0339617,VALID,19.4285,VALID,157,VALID,2.2044,
2007-12-18, 02:15:00,VALID,916.734,VALID,0,VALID,100,VALID,-0.0169808,VALID,19.4223,VALID,153,VALID,2.54755,
2007-12-18, 02:16:00,VALID,916.728,VALID,0.2,VALID,100,VALID,-0.0169808,VALID,19.4415,VALID,133,VALID,1.83368,
2007-12-18, 02:17:00,VALID,916.714,VALID,0,VALID,100,VALID,-0.0339617,VALID,19.4804,VALID,143,VALID,2.1266,
2007-12-18, 02:18:00,VALID,916.679,VALID,0,VALID,100,VALID,-0.0169808,VALID,19.4839,VALID,146,VALID,2.05972,
2007-12-18, 02:19:00,VALID,916.68,VALID,0,VALID,100,VALID,-0.0339617,VALID,19.4872,VALID,139,VALID,1.39602,
2007-12-18, 02:20:00,VALID,916.665,VALID,0,VALID,100,VALID,-0.0339617,VALID,19.4909,VALID,144,VALID,1.45351,
2007-12-18, 02:21:00,VALID,916.642,VALID,0,VALID,100,VALID,-0.0509425,VALID,19.4809,VALID,147,VALID,1.70585,
2007-12-18, 02:22:00,VALID,916.64,VALID,0,VALID,100,VALID,-0.0509425,VALID,19.4877,VALID,155,VALID,1.56868,
2007-12-18, 02:23:00,VALID,916.648,VALID,0,VALID,100,VALID,-0.0509425,VALID,19.471,VALID,152,VALID,2.83906,
2007-12-18, 02:24:00,VALID,916.637,VALID,0,VALID,100,VALID,-0.0679233,VALID,19.4939,VALID,151,VALID,2.99947,
2007-12-18, 02:25:00,VALID,916.622,VALID,0,VALID,100,VALID,-0.0339617,VALID,19.5296,VALID,146,VALID,2.24419,
2007-12-18, 02:26:00,VALID,916.603,VALID,0.2,VALID,100,VALID,-0.0509425,VALID,19.5523,VALID,155,VALID,2.15253,
2007-12-18, 02:27:00,VALID,916.613,VALID,0,VALID,99.9705,VALID,-0.0509425,VALID,19.5723,VALID,145,VALID,2.11663,
2007-12-18, 02:28:00,VALID,916.576,VALID,0,VALID,99.8566,VALID,-0.0339617,VALID,19.5685,VALID,150,VALID,2.96654,
2007-12-18, 02:29:00,VALID,916.595,VALID,0,VALID,99.7599,VALID,-0.0679233,VALID,19.5952,VALID,149,VALID,1.93712,
2007-12-18, 02:30:00,VALID,916.584,VALID,0,VALID,99.7167,VALID,0,VALID,19.6007,VALID,152,VALID,1.51953,
2007-12-18, 02:31:00,VALID,916.576,VALID,0,VALID,99.7701,VALID,-0.0169808,VALID,19.5885,VALID,147,VALID,1.88003,
2007-12-18, 02:32:00,VALID,916.563,VALID,0,VALID,99.8324,VALID,0,VALID,19.5618,VALID,150,VALID,1.7782,
2007-12-18, 02:33:00,VALID,916.551,VALID,0,VALID,99.8871,VALID,-0.0339617,VALID,19.5521,VALID,151,VALID,1.68314,
2007-12-18, 02:34:00,VALID,916.569,VALID,0,VALID,99.9532,VALID,-0.0679233,VALID,19.5393,VALID,143,VALID,1.78683,
2007-12-18, 02:35:00,VALID,916.527,VALID,0,VALID,99.8973,VALID,-0.0679233,VALID,19.5331,VALID,137,VALID,1.81886,
2007-12-18, 02:36:00,VALID,916.511,VALID,0,VALID,99.821,VALID,-0.0169808,VALID,19.5391,VALID,148,VALID,1.75373,
2007-12-18, 02:37:00,VALID,916.518,VALID,0.2,VALID,99.8375,VALID,-0.0509425,VALID,19.5526,VALID,140,VALID,1.80178,
2007-12-18, 02:38:00,VALID,916.502,VALID,0,VALID,99.9163,VALID,-0.0509425,VALID,19.5363,VALID,145,VALID,1.95,
2007-12-18, 02:39:00,VALID,916.504,VALID,0,VALID,99.999,VALID,-0.0339617,VALID,19.5099,VALID,153,VALID,1.47983,
2007-12-18, 02:40:00,VALID,916.489,VALID,0,VALID,100,VALID,-0.0509425,VALID,19.5004,VALID,145,VALID,1.87882,
2007-12-18, 02:41:00,VALID,916.47,VALID,0,VALID,100,VALID,0,VALID,19.4837,VALID,141,VALID,2.27474,
2007-12-18, 02:42:00,VALID,916.476,VALID,0,VALID,100,VALID,-0.0849042,VALID,19.4882,VALID,170,VALID,1.59606,
2007-12-18, 02:43:00,VALID,916.443,VALID,0,VALID,100,VALID,-0.0169808,VALID,19.4809,VALID,162,VALID,1.73247,
2007-12-18, 02:44:00,VALID,916.439,VALID,0,VALID,100,VALID,-0.0169808,VALID,19.4749,VALID,142,VALID,1.16267,
2007-12-18, 02:45:00,VALID,916.435,VALID,0,VALID,100,VALID,-0.0679233,VALID,19.4652,VALID,149,VALID,0.744727,
2007-12-18, 02:46:00,VALID,916.427,VALID,0,VALID,100,VALID,-0.0509425,VALID,19.4522,VALID,156,VALID,0.713542,
2007-12-18, 02:47:00,VALID,916.403,VALID,0.2,VALID,100,VALID,-0.0509425,VALID,19.4325,VALID,145,VALID,0.961523,
2007-12-18, 02:48:00,VALID,916.399,VALID,0,VALID,100,VALID,-0.0169808,VALID,19.436,VALID,151,VALID,1.57403,
2007-12-18, 02:49:00,VALID,916.362,VALID,0,VALID,100,VALID,-0.0679233,VALID,19.4295,VALID,163,VALID,2.52896,
2007-12-18, 02:50:00,VALID,916.346,VALID,0,VALID,99.9888,VALID,-0.0509425,VALID,19.4717,VALID,160,VALID,2.13393,
2007-12-18, 02:51:00,VALID,916.356,VALID,0,VALID,99.7243,VALID,-0.0509425,VALID,19.5461,VALID,129,VALID,1.42656,
2007-12-18, 02:52:00,VALID,916.345,VALID,0,VALID,99.6022,VALID,-0.0509425,VALID,19.562,VALID,130,VALID,1.25284,
2007-12-18, 02:53:00,VALID,916.324,VALID,0,VALID,99.6404,VALID,-0.0509425,VALID,19.5558,VALID,148,VALID,1.23933,
2007-12-18, 02:54:00,VALID,916.312,VALID,0,VALID,99.7485,VALID,-0.0339617,VALID,19.5266,VALID,134,VALID,1.64571,
2007-12-18, 02:55:00,VALID,916.286,VALID,0,VALID,99.8311,VALID,-0.0509425,VALID,19.5036,VALID,147,VALID,1.6795,
2007-12-18, 02:56:00,VALID,916.28,VALID,0.2,VALID,99.8413,VALID,-0.0339617,VALID,19.5007,VALID,141,VALID,1.92787,
2007-12-18, 02:57:00,VALID,916.273,VALID,0,VALID,99.8667,VALID,-0.0339617,VALID,19.5141,VALID,158,VALID,1.59684,
2007-12-18, 02:58:00,VALID,916.267,VALID,0,VALID,99.9214,VALID,0,VALID,19.4842,VALID,165,VALID,2.19016,
2007-12-18, 02:59:00,VALID,916.256,VALID,0,VALID,99.9669,VALID,-0.0509425,VALID,19.4747,VALID,157,VALID,1.67297,
2007-12-18, 03:00:00,VALID,916.225,VALID,0,VALID,99.9967,VALID,-0.0169808,VALID,19.4779,VALID,178,VALID,1.99702,
2007-12-18, 03:01:00,VALID,916.22,VALID,0,VALID,100,VALID,0,VALID,19.468,VALID,169,VALID,1.5565,
2007-12-18, 03:02:00,VALID,916.215,VALID,0,VALID,100,VALID,-0.0169808,VALID,19.4612,VALID,137,VALID,1.01816,
2007-12-18, 03:03:00,VALID,916.198,VALID,0,VALID,100,VALID,-0.0339617,VALID,19.439,VALID,148,VALID,1.28553,
2007-12-18, 03:04:00,VALID,916.183,VALID,0.2,VALID,100,VALID,-0.0169808,VALID,19.4056,VALID,162,VALID,1.69401,
2007-12-18, 03:05:00,VALID,916.185,VALID,0,VALID,100,VALID,-0.0169808,VALID,19.3866,VALID,164,VALID,1.82653,
2007-12-18, 03:06:00,VALID,916.196,VALID,0,VALID,100,VALID,0,VALID,19.3801,VALID,167,VALID,1.40873,
2007-12-18, 03:07:00,VALID,916.2,VALID,0,VALID,100,VALID,-0.0169808,VALID,19.3834,VALID,166,VALID,1.43895,
2007-12-18, 03:08:00,VALID,916.181,VALID,0,VALID,100,VALID,-0.0509425,VALID,19.3771,VALID,172,VALID,1.52174,
2007-12-18, 03:09:00,VALID,916.181,VALID,0,VALID,100,VALID,-0.0339617,VALID,19.3869,VALID,166,VALID,1.28961,
2007-12-18, 03:10:00,VALID,916.179,VALID,0,VALID,100,VALID,-0.0339617,VALID,19.3901,VALID,156,VALID,1.52493,
2007-12-18, 03:11:00,VALID,916.171,VALID,0,VALID,100,VALID,-0.0169808,VALID,19.3899,VALID,166,VALID,1.42283,
2007-12-18, 03:12:00,VALID,916.165,VALID,0,VALID,100,VALID,0,VALID,19.3968,VALID,171,VALID,1.87214,
2007-12-18, 03:13:00,VALID,916.163,VALID,0,VALID,100,VALID,-0.0509425,VALID,19.3961,VALID,170,VALID,0.814732,
2007-12-18, 03:14:00,VALID,916.118,VALID,0,VALID,100,VALID,-0.0169808,VALID,19.4156,VALID,168,VALID,1.8294,
2007-12-18, 03:15:00,VALID,916.116,VALID,0.2,VALID,100,VALID,-0.0169808,VALID,19.4191,VALID,170,VALID,1.52859,
2007-12-18, 03:16:00,VALID,916.11,VALID,0,VALID,100,VALID,-0.0339617,VALID,19.4195,VALID,152,VALID,1.73872,
2007-12-18, 03:17:00,VALID,916.116,VALID,0,VALID,100,VALID,-0.0679233,VALID,19.4425,VALID,164,VALID,1.508,
2007-12-18, 03:18:00,VALID,916.105,VALID,0,VALID,100,VALID,-0.0169808,VALID,19.4288,VALID,180,VALID,1.21183,
2007-12-18, 03:19:00,VALID,916.091,VALID,0,VALID,100,VALID,-0.0339617,VALID,19.4133,VALID,142,VALID,1.61875,
2007-12-18, 03:20:00,VALID,916.094,VALID,0,VALID,100,VALID,-0.0339617,VALID,19.4133,VALID,155,VALID,1.60213,
2007-12-18, 03:21:00,VALID,916.069,VALID,0,VALID,100,VALID,-0.0169808,VALID,19.4066,VALID,161,VALID,1.07158,
2007-12-18, 03:22:00,VALID,916.076,VALID,0,VALID,100,VALID,-0.0169808,VALID,19.3899,VALID,149,VALID,1.15625,
2007-12-18, 03:23:00,VALID,916.068,VALID,0,VALID,100,VALID,-0.0339617,VALID,19.3936,VALID,146,VALID,1.09336,
2007-12-18, 03:24:00,VALID,916.091,VALID,0,VALID,100,VALID,-0.0169808,VALID,19.4071,VALID,129,VALID,0.98971,
2007-12-18, 03:25:00,VALID,916.074,VALID,0,VALID,100,VALID,-0.0509425,VALID,19.3899,VALID,119,VALID,1.06534,
2007-12-18, 03:26:00,VALID,916.092,VALID,0,VALID,100,VALID,-0.0169808,VALID,19.3871,VALID,137,VALID,1.30673,
2007-12-18, 03:27:00,VALID,916.071,VALID,0,VALID,100,VALID,0,VALID,19.3806,VALID,144,VALID,2.11118,
2007-12-18, 03:28:00,VALID,916.057,VALID,0,VALID,100,VALID,0,VALID,19.3899,VALID,162,VALID,1.79306,
2007-12-18, 03:29:00,VALID,916.069,VALID,0,VALID,100,VALID,-0.0169808,VALID,19.4091,VALID,139,VALID,1.32732,
2007-12-18, 03:30:00,VALID,916.074,VALID,0,VALID,100,VALID,0,VALID,19.4126,VALID,134,VALID,0.813179,
2007-12-18, 03:31:00,VALID,916.061,VALID,0,VALID,100,VALID,-0.0169808,VALID,19.4031,VALID,155,VALID,1.27947,
2007-12-18, 03:32:00,VALID,916.062,VALID,0.2,VALID,100,VALID,-0.0169808,VALID,19.4003,VALID,153,VALID,1.29258,
2007-12-18, 03:33:00,VALID,916.068,VALID,0,VALID,100,VALID,0,VALID,19.3903,VALID,181,VALID,0.923692,
2007-12-18, 03:34:00,VALID,916.07,VALID,0,VALID,100,VALID,-0.0339617,VALID,19.3607,VALID,162,VALID,0.818788,
2007-12-18, 03:35:00,VALID,916.073,VALID,0,VALID,100,VALID,-0.0169808,VALID,19.3574,VALID,162,VALID,0.955357,
2007-12-18, 03:36:00,VALID,916.078,VALID,0,VALID,100,VALID,-0.0339617,VALID,19.338,VALID,174,VALID,0.372523,